contact:dominique.lefevre@mio.osupytheas.fr, maurice.libes@osupytheas.fr, didier.mallarino@osupytheas.fr
Project:EMSO http://www.emso-fr.org/EMSO-France
Depth: 2436.0 m
Title:EMSO Ligure Ouest : Data MII capteur AQUADOPP
Date,Latitude,Longitude,X_East,Y_North,Z_Up,Amplitude_X,Amplitude_Y,Amplitude_Z,Batterie,SoundSpeed,Heading,Pitch,Roll,Pressure,TIS,Speed,Direction
, degrees North, degrees East, m.s-1, m.s-1,m.s-1, 1, 1, 1, Volt, m.s-1, degree, degree, degree, dbar, degree_C, m.s-1, degree
2022-08-15T00:04:03,42.805,6.029,0.01,-0.009,0.009,103.0,103.0,100.0,13.3,1505.2,330.5,-0.8,1.8,2471.008,13.28,0.013,132.0
2022-08-15T00:07:03,42.805,6.029,0.021,-0.007,-0.014,103.0,104.0,102.0,13.4,1505.2,327.9,-0.7,1.8,2470.985,13.28,0.022,108.4
2022-08-15T00:10:03,42.805,6.029,0.025,0.004,-0.01,105.0,101.0,102.0,13.3,1505.2,323.4,-0.7,1.8,2470.992,13.28,0.025,80.9
2022-08-15T00:13:03,42.805,6.029,0.019,-0.005,0.023,102.0,103.0,101.0,13.4,1505.2,321.0,-0.8,1.8,2470.975,13.29,0.019,104.7
2022-08-15T00:16:03,42.805,6.029,0.01,-0.02,-0.015,103.0,103.0,102.0,13.4,1505.2,324.8,-0.8,1.9,2470.97,13.29,0.022,153.4
2022-08-15T00:19:03,42.805,6.029,0.018,-0.013,-0.008,103.0,103.0,102.0,13.4,1505.2,326.6,-0.8,1.8,2470.986,13.29,0.022,125.8
2022-08-15T00:22:03,42.805,6.029,0.02,-0.014,0.003,103.0,103.0,101.0,13.4,1505.2,322.1,-0.7,1.8,2470.952,13.29,0.024,125.0
2022-08-15T00:25:03,42.805,6.029,0.012,-0.011,0.008,104.0,102.0,101.0,13.3,1505.2,331.7,-0.8,1.8,2470.913,13.29,0.016,132.5
2022-08-15T00:28:03,42.805,6.029,0.033,0.006,-0.014,104.0,101.0,101.0,13.3,1505.2,327.9,-0.7,1.9,2470.952,13.29,0.033,79.7
2022-08-15T00:31:03,42.805,6.029,0.009,0.006,-0.044,103.0,104.0,102.0,13.4,1505.2,325.3,-0.8,1.8,2470.957,13.29,0.01,56.3
2022-08-15T00:34:03,42.805,6.029,0.016,-0.022,-0.031,104.0,103.0,101.0,13.4,1505.2,327.4,-0.7,1.8,2470.946,13.29,0.027,144.0
2022-08-15T00:37:03,42.805,6.029,0.006,-0.008,-0.013,104.0,104.0,101.0,13.4,1505.2,325.9,-0.8,1.8,2470.96,13.29,0.01,143.1
2022-08-15T00:40:03,42.805,6.029,0.024,-0.009,0.005,102.0,103.0,101.0,13.3,1505.2,318.3,-0.8,1.8,2470.957,13.29,0.025,110.6
2022-08-15T00:43:03,42.805,6.029,0.005,-0.004,-0.023,103.0,104.0,100.0,13.3,1505.2,327.6,-0.7,1.8,2470.97,13.29,0.006,128.7
2022-08-15T00:46:03,42.805,6.029,0.001,0.004,-0.041,103.0,104.0,101.0,13.4,1505.2,318.9,-0.7,1.8,2470.952,13.29,0.004,14.0
2022-08-15T00:49:03,42.805,6.029,0.013,-0.002,0.011,104.0,104.0,101.0,13.4,1505.2,328.3,-0.8,1.8,2470.951,13.29,0.013,98.7
2022-08-15T00:52:03,42.805,6.029,0.017,-0.02,-0.025,103.0,102.0,102.0,13.4,1505.2,327.6,-0.7,1.8,2470.938,13.29,0.026,139.6
2022-08-15T00:55:03,42.805,6.029,0.03,-0.022,-0.032,104.0,105.0,100.0,13.4,1505.2,328.4,-0.7,1.8,2470.97,13.29,0.037,126.3
2022-08-15T00:58:03,42.805,6.029,0.007,-0.015,-0.007,103.0,103.0,101.0,13.4,1505.2,319.5,-0.8,1.8,2470.941,13.29,0.016,155.0
2022-08-15T01:04:03,42.805,6.029,-0.001,0.001,0.004,103.0,105.0,102.0,13.4,1505.2,317.6,-0.8,1.8,2470.973,13.28,0.001,315.0
2022-08-15T01:07:03,42.805,6.029,-0.01,0.0,-0.017,103.0,103.0,101.0,13.4,1505.2,329.7,-0.7,1.8,2470.991,13.28,0.01,270.0
2022-08-15T01:10:03,42.805,6.029,-0.013,0.007,-0.025,104.0,103.0,101.0,13.4,1505.2,320.4,-0.7,1.8,2470.955,13.28,0.014,298.3
2022-08-15T01:13:03,42.805,6.029,0.022,-0.02,-0.018,103.0,102.0,102.0,13.3,1505.2,327.8,-0.8,1.8,2470.979,13.28,0.029,132.3
2022-08-15T01:16:03,42.805,6.029,0.01,0.011,-0.003,103.0,104.0,101.0,13.4,1505.2,324.1,-0.8,1.8,2470.956,13.29,0.014,42.3
2022-08-15T01:19:03,42.805,6.029,0.013,-0.023,-0.007,103.0,103.0,101.0,13.4,1505.2,325.0,-0.8,1.8,2470.951,13.29,0.026,150.5
2022-08-15T01:22:03,42.805,6.029,0.016,-0.013,-0.012,102.0,104.0,100.0,13.4,1505.2,328.9,-0.7,1.8,2470.916,13.29,0.02,129.1
2022-08-15T01:25:03,42.805,6.029,0.035,-0.004,0.016,103.0,104.0,101.0,13.4,1505.2,320.8,-0.7,1.8,2470.918,13.29,0.035,96.5
2022-08-15T01:28:03,42.805,6.029,0.024,0.005,-0.014,102.0,103.0,102.0,13.3,1505.2,332.9,-0.8,1.8,2470.914,13.29,0.024,78.2
2022-08-15T01:31:03,42.805,6.029,0.01,-0.014,-0.017,103.0,103.0,102.0,13.3,1505.2,325.5,-0.8,1.8,2470.897,13.29,0.017,144.5
2022-08-15T01:34:03,42.805,6.029,0.02,-0.011,-0.033,103.0,102.0,102.0,13.3,1505.2,327.2,-0.8,1.8,2470.912,13.29,0.022,118.8
2022-08-15T01:37:03,42.805,6.029,0.01,-0.013,-0.012,103.0,103.0,100.0,13.4,1505.2,327.9,-0.7,1.8,2470.905,13.29,0.016,142.4
2022-08-15T01:40:03,42.805,6.029,0.025,-0.016,-0.001,103.0,103.0,100.0,13.4,1505.2,326.3,-0.8,1.8,2470.895,13.29,0.029,122.6
2022-08-15T01:43:03,42.805,6.029,0.008,-0.023,0.0,104.0,102.0,102.0,13.4,1505.2,323.2,-0.8,1.8,2470.915,13.29,0.024,160.8
2022-08-15T01:46:03,42.805,6.029,0.034,-0.003,-0.002,102.0,104.0,102.0,13.4,1505.2,331.4,-0.8,1.8,2470.926,13.29,0.034,95.0
2022-08-15T01:49:03,42.805,6.029,0.025,0.001,0.021,104.0,103.0,101.0,13.4,1505.2,326.8,-0.8,1.8,2470.862,13.29,0.025,87.7
2022-08-15T01:52:03,42.805,6.029,0.034,-0.016,-0.019,102.0,105.0,102.0,13.4,1505.2,322.7,-0.7,1.8,2470.928,13.29,0.037,115.2
2022-08-15T01:55:03,42.805,6.029,-0.02,-0.001,-0.043,104.0,104.0,100.0,13.4,1505.2,333.1,-0.8,1.8,2470.891,13.29,0.02,267.1
2022-08-15T01:58:03,42.805,6.029,0.003,0.002,-0.035,105.0,104.0,100.0,13.3,1505.2,323.0,-0.7,1.8,2470.886,13.29,0.003,56.3
2022-08-15T03:04:02,42.805,6.029,0.014,0.022,0.037,103.0,104.0,102.0,13.4,1505.1,328.8,-0.7,1.8,2471.297,13.27,0.026,32.5
2022-08-15T03:07:03,42.805,6.029,0.01,-0.013,-0.015,104.0,103.0,101.0,13.4,1505.2,319.7,-0.8,1.8,2471.239,13.28,0.016,142.4
2022-08-15T03:10:03,42.805,6.029,-0.004,-0.008,-0.003,103.0,103.0,101.0,13.4,1505.2,321.4,-0.8,1.8,2471.141,13.28,0.008,206.6
2022-08-15T03:13:03,42.805,6.029,0.018,-0.007,-0.025,104.0,103.0,101.0,13.3,1505.2,325.1,-0.7,1.8,2471.035,13.28,0.019,111.2
2022-08-15T03:16:03,42.805,6.029,0.024,-0.014,-0.022,103.0,103.0,102.0,13.3,1505.2,324.0,-0.8,1.8,2470.991,13.28,0.027,120.3
2022-08-15T03:19:03,42.805,6.029,0.025,-0.019,-0.008,103.0,103.0,101.0,13.4,1505.2,324.3,-0.8,1.8,2470.937,13.28,0.031,127.2
2022-08-15T03:22:03,42.805,6.029,0.031,-0.023,-0.001,103.0,104.0,100.0,13.3,1505.2,328.2,-0.8,1.9,2470.918,13.28,0.038,126.6
2022-08-15T03:25:03,42.805,6.029,0.031,0.007,-0.001,103.0,101.0,101.0,13.4,1505.2,323.5,-0.8,1.8,2470.875,13.29,0.031,77.3
2022-08-15T03:28:03,42.805,6.029,0.038,-0.011,-0.041,104.0,104.0,101.0,13.4,1505.2,332.3,-0.8,1.8,2470.891,13.29,0.039,106.1
2022-08-15T03:31:03,42.805,6.029,0.002,-0.005,-0.002,103.0,102.0,102.0,13.3,1505.2,332.3,-0.8,1.8,2470.858,13.29,0.005,158.2
2022-08-15T03:34:03,42.805,6.029,0.015,-0.007,-0.01,103.0,103.0,101.0,13.4,1505.2,324.0,-0.8,1.8,2470.856,13.29,0.016,115.0
2022-08-15T03:37:03,42.805,6.029,0.026,0.0,-0.004,103.0,103.0,101.0,13.3,1505.2,322.0,-0.8,1.8,2470.862,13.29,0.026,90.0
2022-08-15T03:40:03,42.805,6.029,0.015,0.002,-0.031,102.0,104.0,101.0,13.4,1505.2,322.4,-0.8,1.8,2470.835,13.29,0.015,82.4
2022-08-15T03:43:03,42.805,6.029,0.0,-0.022,-0.028,103.0,104.0,101.0,13.3,1505.2,327.9,-0.7,1.8,2470.831,13.29,0.022,180.0
2022-08-15T03:46:03,42.805,6.029,0.047,-0.021,0.0,101.0,105.0,102.0,13.3,1505.2,333.9,-0.8,1.8,2470.791,13.29,0.051,114.1
2022-08-15T03:49:03,42.805,6.029,0.017,0.005,-0.03,103.0,104.0,101.0,13.4,1505.2,326.6,-0.7,1.8,2470.788,13.29,0.017,73.6
2022-08-15T03:52:03,42.805,6.029,0.013,-0.021,0.002,104.0,104.0,101.0,13.4,1505.2,324.2,-0.7,1.8,2470.806,13.29,0.024,148.2
2022-08-15T03:55:03,42.805,6.029,0.02,-0.013,0.001,104.0,102.0,101.0,13.4,1505.2,323.3,-0.8,1.8,2470.811,13.29,0.023,123.0
2022-08-15T03:58:03,42.805,6.029,0.007,-0.03,-0.039,103.0,102.0,101.0,13.4,1505.2,327.4,-0.7,1.8,2470.815,13.29,0.03,166.9
2022-08-15T04:04:03,42.805,6.029,0.014,-0.013,-0.024,102.0,103.0,102.0,13.4,1505.2,326.8,-0.8,1.8,2470.806,13.28,0.019,132.9
2022-08-15T04:07:03,42.805,6.029,0.012,0.005,-0.014,103.0,103.0,101.0,13.4,1505.2,332.9,-0.8,1.8,2470.82,13.28,0.013,67.4
2022-08-15T04:10:03,42.805,6.029,0.019,-0.004,-0.001,102.0,103.0,101.0,13.3,1505.2,330.5,-0.8,1.9,2470.825,13.28,0.019,101.9
2022-08-15T04:13:03,42.805,6.029,0.004,0.006,-0.011,103.0,103.0,101.0,13.4,1505.2,322.8,-0.8,1.8,2470.846,13.29,0.007,33.7
2022-08-15T04:16:03,42.805,6.029,-0.003,0.004,-0.026,104.0,104.0,100.0,13.3,1505.2,322.8,-0.7,1.8,2470.822,13.29,0.005,323.1
2022-08-15T04:19:03,42.805,6.029,0.026,-0.003,-0.036,103.0,103.0,102.0,13.4,1505.2,323.3,-0.8,1.8,2470.854,13.29,0.026,96.6
2022-08-15T04:22:03,42.805,6.029,0.014,-0.007,-0.014,103.0,103.0,102.0,13.3,1505.2,328.7,-0.8,1.8,2470.814,13.29,0.015,116.6
2022-08-15T04:25:03,42.805,6.029,0.013,-0.018,-0.021,103.0,104.0,102.0,13.4,1505.2,319.5,-0.8,1.8,2470.831,13.29,0.022,144.2
2022-08-15T04:28:03,42.805,6.029,0.025,0.003,0.0,103.0,102.0,101.0,13.4,1505.2,322.6,-0.7,1.9,2470.785,13.29,0.025,83.2
2022-08-15T04:31:03,42.805,6.029,0.017,-0.021,0.004,103.0,104.0,101.0,13.3,1505.2,320.8,-0.7,1.9,2470.812,13.29,0.027,141.0
2022-08-15T04:34:03,42.805,6.029,0.005,-0.011,-0.005,103.0,104.0,101.0,13.4,1505.2,329.3,-0.8,1.8,2470.816,13.29,0.012,155.6
2022-08-15T04:37:03,42.805,6.029,0.005,-0.002,-0.001,103.0,104.0,101.0,13.3,1505.2,324.6,-0.7,1.8,2470.747,13.29,0.005,111.8
2022-08-15T04:40:03,42.805,6.029,0.0,0.01,0.03,103.0,103.0,101.0,13.3,1505.2,324.1,-0.8,1.8,2470.821,13.29,0.01,0.0
2022-08-15T04:43:03,42.805,6.029,0.012,0.008,-0.002,103.0,104.0,101.0,13.4,1505.2,323.5,-0.8,1.8,2470.81,13.29,0.014,56.3
2022-08-15T04:46:03,42.805,6.029,0.016,-0.009,0.009,102.0,104.0,101.0,13.4,1505.2,320.1,-0.8,1.8,2470.803,13.29,0.018,119.4
2022-08-15T04:49:03,42.805,6.029,-0.001,-0.01,-0.003,103.0,102.0,103.0,13.4,1505.2,329.7,-0.8,1.8,2470.804,13.29,0.01,185.7
2022-08-15T04:52:03,42.805,6.029,0.012,0.0,0.006,102.0,102.0,101.0,13.3,1505.2,321.6,-0.8,1.8,2470.814,13.29,0.012,90.0
2022-08-15T04:55:03,42.805,6.029,0.002,0.003,0.012,103.0,104.0,101.0,13.4,1505.2,323.1,-0.8,1.8,2470.822,13.29,0.003,33.7
2022-08-15T04:58:03,42.805,6.029,0.007,0.011,-0.018,103.0,103.0,101.0,13.3,1505.2,329.3,-0.8,1.8,2470.799,13.29,0.013,32.5
2022-08-15T05:04:03,42.805,6.029,-0.006,0.0,0.003,103.0,103.0,102.0,13.3,1505.2,331.2,-0.8,1.8,2470.862,13.28,0.006,270.0
2022-08-15T05:07:03,42.805,6.029,0.007,0.0,-0.014,103.0,103.0,102.0,13.4,1505.2,329.9,-0.8,1.9,2470.882,13.28,0.007,90.0
2022-08-15T05:10:03,42.805,6.029,0.015,-0.001,0.008,104.0,105.0,101.0,13.3,1505.2,329.4,-0.8,1.8,2470.843,13.29,0.015,93.8
2022-08-15T05:13:03,42.805,6.029,0.028,-0.008,0.014,104.0,103.0,101.0,13.4,1505.2,323.0,-0.7,1.8,2470.811,13.29,0.029,105.9
2022-08-15T05:16:03,42.805,6.029,0.014,0.003,-0.005,103.0,102.0,101.0,13.3,1505.2,327.4,-0.7,1.8,2470.792,13.29,0.014,77.9
2022-08-15T05:19:03,42.805,6.029,0.019,-0.019,-0.004,103.0,103.0,102.0,13.4,1505.2,318.4,-0.8,1.8,2470.87,13.29,0.026,135.0
2022-08-15T05:22:03,42.805,6.029,0.017,0.005,-0.009,103.0,105.0,102.0,13.4,1505.2,321.4,-0.8,1.8,2470.81,13.29,0.017,73.6
2022-08-15T05:25:03,42.805,6.029,0.005,0.004,0.004,103.0,103.0,101.0,13.4,1505.2,331.4,-0.8,1.8,2470.866,13.29,0.006,51.3
2022-08-15T05:28:03,42.805,6.029,0.008,-0.003,-0.007,102.0,103.0,102.0,13.4,1505.2,328.6,-0.7,1.8,2470.86,13.29,0.008,110.6
2022-08-15T05:31:03,42.805,6.029,0.015,0.001,-0.012,103.0,104.0,102.0,13.4,1505.2,325.8,-0.7,1.8,2470.848,13.29,0.015,86.2
2022-08-15T05:34:03,42.805,6.029,0.015,0.002,-0.027,104.0,103.0,102.0,13.4,1505.2,323.4,-0.8,1.8,2470.849,13.29,0.015,82.4
2022-08-15T05:37:03,42.805,6.029,0.014,0.018,0.028,102.0,103.0,102.0,13.3,1505.2,332.0,-0.8,1.8,2470.824,13.29,0.022,37.9
2022-08-15T05:40:03,42.805,6.029,0.018,0.005,-0.007,103.0,104.0,101.0,13.3,1505.2,319.0,-0.8,1.8,2470.834,13.29,0.018,74.5
2022-08-15T05:43:03,42.805,6.029,-0.01,0.017,-0.012,103.0,103.0,101.0,13.4,1505.2,317.2,-0.8,1.8,2470.844,13.29,0.019,329.5
2022-08-15T05:46:03,42.805,6.029,0.018,-0.004,0.012,103.0,103.0,101.0,13.3,1505.2,317.6,-0.8,1.9,2470.858,13.29,0.018,102.5
2022-08-15T05:49:03,42.805,6.029,0.045,0.0,-0.026,102.0,103.0,101.0,13.3,1505.2,319.3,-0.8,1.8,2470.835,13.29,0.045,90.0
2022-08-15T05:52:03,42.805,6.029,0.014,0.006,0.0,102.0,104.0,102.0,13.4,1505.2,332.3,-0.8,1.8,2470.893,13.29,0.015,66.8
2022-08-15T05:55:03,42.805,6.029,-0.001,-0.007,-0.008,102.0,103.0,101.0,13.4,1505.2,328.7,-0.8,1.8,2470.835,13.29,0.007,188.1
2022-08-15T05:58:03,42.805,6.029,0.015,-0.022,-0.025,103.0,103.0,101.0,13.4,1505.2,332.3,-0.7,1.8,2470.859,13.29,0.026,145.7
2022-08-15T06:04:03,42.805,6.029,0.001,0.018,0.0,102.0,103.0,102.0,13.4,1505.2,329.6,-0.8,1.8,2470.844,13.28,0.018,3.2
2022-08-15T06:07:03,42.805,6.029,0.002,-0.02,-0.023,102.0,104.0,101.0,13.3,1505.2,318.0,-0.7,1.8,2470.917,13.28,0.02,174.3
2022-08-15T06:10:03,42.805,6.029,0.019,0.009,-0.032,102.0,104.0,102.0,13.4,1505.2,323.7,-0.8,1.8,2470.884,13.29,0.021,64.7
2022-08-15T06:13:03,42.805,6.029,0.027,0.008,0.036,103.0,104.0,101.0,13.3,1505.2,332.3,-0.8,1.8,2470.892,13.29,0.028,73.5
2022-08-15T06:16:03,42.805,6.029,0.014,-0.011,-0.007,102.0,104.0,101.0,13.3,1505.2,328.4,-0.8,1.8,2470.867,13.29,0.017,128.2
2022-08-15T06:19:03,42.805,6.029,0.028,-0.018,-0.01,102.0,102.0,101.0,13.4,1505.2,333.9,-0.8,1.8,2470.882,13.29,0.033,122.7
2022-08-15T06:22:03,42.805,6.029,0.01,0.0,0.034,104.0,102.0,102.0,13.4,1505.2,326.1,-0.7,1.8,2470.91,13.29,0.01,90.0
2022-08-15T06:25:03,42.805,6.029,0.009,-0.01,-0.013,103.0,103.0,100.0,13.4,1505.2,326.6,-0.8,1.8,2470.894,13.29,0.013,138.0
2022-08-15T06:28:03,42.805,6.029,0.014,-0.01,0.024,102.0,103.0,101.0,13.4,1505.2,326.7,-0.8,1.8,2470.875,13.29,0.017,125.5
2022-08-15T06:31:03,42.805,6.029,0.01,0.0,-0.005,103.0,103.0,102.0,13.4,1505.2,327.2,-0.7,1.8,2470.901,13.29,0.01,90.0
2022-08-15T06:34:03,42.805,6.029,0.0,0.008,-0.021,105.0,104.0,101.0,13.4,1505.2,323.7,-0.8,1.8,2470.868,13.29,0.008,0.0
2022-08-15T06:37:03,42.805,6.029,0.026,-0.002,-0.001,104.0,102.0,102.0,13.4,1505.2,330.2,-0.8,1.8,2470.856,13.29,0.026,94.4
2022-08-15T06:40:03,42.805,6.029,0.02,0.007,-0.015,102.0,104.0,101.0,13.4,1505.2,322.4,-0.8,1.8,2470.837,13.29,0.021,70.7
2022-08-15T06:43:03,42.805,6.029,0.01,0.026,0.041,103.0,103.0,101.0,13.3,1505.2,322.9,-0.8,1.8,2470.89,13.29,0.027,21.0
2022-08-15T06:46:03,42.805,6.029,-0.006,0.002,0.007,103.0,103.0,103.0,13.4,1505.2,329.6,-0.8,1.8,2470.894,13.29,0.006,288.4
2022-08-15T06:49:03,42.805,6.029,0.0,0.0,-0.04,105.0,102.0,102.0,13.4,1505.2,328.4,-0.7,1.8,2470.885,13.29,0.0,0.0
2022-08-15T06:52:03,42.805,6.029,0.016,0.006,0.012,104.0,105.0,100.0,13.4,1505.2,330.2,-0.8,1.8,2470.884,13.29,0.017,69.4
2022-08-15T06:55:03,42.805,6.029,0.015,0.0,0.034,103.0,103.0,101.0,13.3,1505.2,328.9,-0.7,1.8,2470.891,13.29,0.015,90.0
2022-08-15T06:58:03,42.805,6.029,-0.016,0.013,-0.004,103.0,103.0,102.0,13.3,1505.2,319.3,-0.8,1.8,2470.867,13.29,0.02,309.1
2022-08-15T07:04:03,42.805,6.029,0.008,0.005,-0.023,103.0,103.0,100.0,13.4,1505.2,325.1,-0.8,1.8,2470.942,13.28,0.009,58.0
2022-08-15T07:07:03,42.805,6.029,0.02,-0.005,0.001,103.0,103.0,101.0,13.3,1505.2,325.8,-0.8,1.8,2470.925,13.28,0.02,104.0
2022-08-15T07:10:03,42.805,6.029,-0.002,-0.004,-0.04,103.0,103.0,101.0,13.4,1505.2,328.5,-0.8,1.8,2470.978,13.28,0.004,206.6
2022-08-15T07:13:03,42.805,6.029,0.024,0.005,-0.017,103.0,104.0,100.0,13.3,1505.2,330.4,-0.8,1.8,2470.953,13.29,0.024,78.2
2022-08-15T07:16:03,42.805,6.029,0.027,0.021,-0.03,103.0,102.0,101.0,13.3,1505.2,327.5,-0.8,1.8,2470.897,13.29,0.034,52.1
2022-08-15T07:19:03,42.805,6.029,0.015,0.004,-0.025,101.0,104.0,102.0,13.4,1505.2,333.6,-0.8,1.8,2470.916,13.29,0.015,75.1
2022-08-15T07:22:03,42.805,6.029,0.021,-0.009,-0.006,103.0,103.0,102.0,13.4,1505.2,324.3,-0.7,1.8,2470.918,13.29,0.022,113.2
2022-08-15T07:25:03,42.805,6.029,-0.017,-0.013,0.0,104.0,103.0,100.0,13.3,1505.2,319.8,-0.7,1.8,2470.914,13.29,0.021,232.6
2022-08-15T07:28:03,42.805,6.029,0.0,0.009,-0.002,103.0,104.0,102.0,13.3,1505.2,330.9,-0.8,1.8,2470.914,13.29,0.009,0.0
2022-08-15T07:31:03,42.805,6.029,-0.007,0.005,0.004,103.0,103.0,101.0,13.4,1505.2,332.6,-0.8,1.8,2470.966,13.29,0.008,305.5
2022-08-15T07:34:03,42.805,6.029,0.018,0.016,-0.013,103.0,104.0,102.0,13.4,1505.2,332.6,-0.8,1.8,2470.954,13.29,0.024,48.4
2022-08-15T07:37:03,42.805,6.029,0.001,0.028,0.01,103.0,102.0,102.0,13.3,1505.2,331.1,-0.8,1.8,2470.901,13.29,0.028,2.0
2022-08-15T07:40:03,42.805,6.029,0.014,0.001,-0.043,103.0,103.0,102.0,13.4,1505.2,324.9,-0.8,1.8,2470.879,13.29,0.014,85.9
2022-08-15T07:43:03,42.805,6.029,0.011,-0.016,-0.016,103.0,104.0,102.0,13.3,1505.2,331.5,-0.8,1.8,2470.896,13.29,0.019,145.5
2022-08-15T07:46:03,42.805,6.029,0.028,-0.016,-0.001,102.0,103.0,103.0,13.4,1505.2,321.9,-0.7,1.8,2470.926,13.29,0.032,119.7
2022-08-15T07:49:03,42.805,6.029,0.011,0.02,-0.014,103.0,104.0,102.0,13.3,1505.2,325.8,-0.8,1.8,2470.908,13.29,0.022,28.8
2022-08-15T07:52:03,42.805,6.029,0.022,0.0,0.026,103.0,103.0,102.0,13.3,1505.2,323.2,-0.8,1.8,2470.919,13.29,0.022,90.0
2022-08-15T07:55:03,42.805,6.029,0.023,-0.009,-0.005,103.0,103.0,101.0,13.4,1505.2,330.8,-0.8,1.8,2470.936,13.29,0.024,111.4
2022-08-15T07:58:03,42.805,6.029,0.031,-0.005,-0.016,105.0,102.0,101.0,13.3,1505.2,319.6,-0.7,1.8,2470.942,13.29,0.031,99.2
2022-08-15T08:04:03,42.805,6.029,0.021,0.005,0.011,103.0,104.0,101.0,13.4,1505.2,325.4,-0.7,1.9,2471.005,13.28,0.021,76.6
2022-08-15T08:07:03,42.805,6.029,0.028,-0.005,0.014,104.0,103.0,101.0,13.4,1505.2,327.6,-0.7,1.8,2471.001,13.28,0.028,100.1
2022-08-15T08:10:03,42.805,6.029,-0.01,0.007,0.003,104.0,103.0,101.0,13.4,1505.2,326.9,-0.8,1.8,2470.965,13.28,0.012,305.0
2022-08-15T08:13:03,42.805,6.029,0.026,0.008,-0.002,104.0,103.0,101.0,13.3,1505.2,324.9,-0.7,1.8,2470.981,13.28,0.027,72.9
2022-08-15T08:16:03,42.805,6.029,0.024,-0.006,0.013,103.0,104.0,102.0,13.4,1505.2,332.8,-0.8,1.8,2470.959,13.29,0.024,104.0
2022-08-15T08:19:03,42.805,6.029,0.03,0.007,-0.008,105.0,104.0,101.0,13.3,1505.2,321.9,-0.8,1.8,2470.95,13.29,0.03,76.9
2022-08-15T08:22:03,42.805,6.029,0.03,0.016,-0.001,103.0,103.0,102.0,13.4,1505.2,325.4,-0.8,1.8,2470.978,13.29,0.034,61.9
2022-08-15T08:25:03,42.805,6.029,0.007,0.0,-0.018,103.0,103.0,101.0,13.4,1505.2,327.5,-0.8,1.8,2470.972,13.29,0.007,90.0
2022-08-15T08:28:03,42.805,6.029,0.028,0.011,-0.013,104.0,103.0,102.0,13.4,1505.2,325.4,-0.7,1.8,2470.955,13.29,0.03,68.6
2022-08-15T08:31:03,42.805,6.029,-0.007,0.01,-0.007,103.0,105.0,101.0,13.4,1505.2,330.5,-0.7,1.8,2470.974,13.29,0.012,325.0
2022-08-15T08:34:03,42.805,6.029,0.019,-0.012,0.002,104.0,103.0,102.0,13.4,1505.2,326.6,-0.8,1.8,2470.96,13.29,0.022,122.3
2022-08-15T08:37:03,42.805,6.029,0.021,-0.002,-0.005,103.0,105.0,102.0,13.4,1505.2,328.4,-0.8,1.8,2470.968,13.29,0.021,95.4
2022-08-15T08:40:03,42.805,6.029,0.018,0.006,0.003,103.0,104.0,101.0,13.3,1505.2,324.0,-0.7,1.9,2470.993,13.29,0.018,71.6
2022-08-15T08:43:03,42.805,6.029,0.016,0.002,0.015,103.0,104.0,102.0,13.4,1505.2,324.8,-0.8,1.8,2470.987,13.29,0.016,82.9
2022-08-15T08:46:03,42.805,6.029,0.017,-0.014,-0.011,103.0,103.0,102.0,13.4,1505.2,326.6,-0.7,1.8,2470.984,13.29,0.022,129.5
2022-08-15T08:49:03,42.805,6.029,0.034,-0.007,-0.027,104.0,101.0,103.0,13.3,1505.2,321.9,-0.8,1.8,2470.947,13.29,0.034,101.6
2022-08-15T08:52:03,42.805,6.029,0.023,-0.005,0.028,103.0,105.0,102.0,13.3,1505.2,317.9,-0.7,1.8,2470.935,13.29,0.023,102.3
2022-08-15T08:55:03,42.805,6.029,0.025,0.017,0.005,103.0,105.0,101.0,13.4,1505.2,320.4,-0.7,1.8,2470.957,13.29,0.03,55.8
2022-08-15T08:58:03,42.805,6.029,0.04,0.001,-0.016,104.0,102.0,102.0,13.4,1505.2,319.6,-0.8,1.9,2470.96,13.29,0.04,88.6
2022-08-15T09:04:03,42.805,6.029,0.019,-0.001,-0.004,104.0,104.0,100.0,13.4,1505.2,328.6,-0.7,1.8,2470.988,13.28,0.019,93.0
2022-08-15T09:07:03,42.805,6.029,0.021,-0.003,-0.002,102.0,103.0,102.0,13.4,1505.2,322.2,-0.7,1.8,2471.01,13.28,0.021,98.1
2022-08-15T09:10:03,42.805,6.029,0.024,-0.003,0.009,104.0,104.0,101.0,13.4,1505.2,319.4,-0.7,1.9,2470.998,13.28,0.024,97.1
2022-08-15T09:13:03,42.805,6.029,0.002,0.011,-0.031,103.0,103.0,101.0,13.4,1505.2,322.0,-0.8,1.9,2471.009,13.28,0.011,10.3
2022-08-15T09:16:03,42.805,6.029,0.01,-0.004,-0.009,103.0,103.0,101.0,13.4,1505.2,322.5,-0.7,1.8,2470.992,13.29,0.01,111.8
2022-08-15T09:19:03,42.805,6.029,0.013,-0.012,-0.015,103.0,104.0,101.0,13.4,1505.2,329.5,-0.8,1.8,2470.986,13.29,0.017,132.7
2022-08-15T09:22:03,42.805,6.029,0.033,-0.02,-0.011,104.0,104.0,102.0,13.4,1505.2,321.5,-0.7,1.8,2470.989,13.29,0.038,121.2
2022-08-15T09:25:03,42.805,6.029,0.019,-0.016,-0.006,104.0,104.0,101.0,13.4,1505.2,321.5,-0.8,1.8,2470.948,13.29,0.024,130.1
2022-08-15T09:28:03,42.805,6.029,0.03,-0.005,-0.023,103.0,104.0,101.0,13.3,1505.2,330.1,-0.8,1.8,2471.034,13.29,0.03,99.5
2022-08-15T09:31:03,42.805,6.029,0.02,0.005,-0.027,104.0,104.0,101.0,13.3,1505.2,329.3,-0.8,1.8,2470.974,13.29,0.02,76.0
2022-08-15T09:34:03,42.805,6.029,0.006,-0.007,-0.019,102.0,104.0,102.0,13.4,1505.2,323.8,-0.8,1.8,2470.982,13.29,0.009,139.4
2022-08-15T09:37:03,42.805,6.029,0.0,-0.008,-0.009,104.0,104.0,101.0,13.3,1505.2,321.9,-0.8,1.8,2470.968,13.29,0.008,180.0
2022-08-15T09:40:03,42.805,6.029,-0.017,-0.002,-0.026,102.0,103.0,102.0,13.4,1505.2,323.1,-0.8,1.8,2470.962,13.29,0.017,263.3
2022-08-15T09:43:03,42.805,6.029,0.039,-0.021,-0.017,104.0,102.0,101.0,13.4,1505.2,323.8,-0.7,1.8,2470.965,13.29,0.044,118.3
2022-08-15T09:46:03,42.805,6.029,0.026,-0.007,-0.002,103.0,103.0,101.0,13.4,1505.2,326.8,-0.7,1.8,2470.965,13.29,0.026,105.1
2022-08-15T09:49:03,42.805,6.029,0.007,0.003,0.006,103.0,103.0,102.0,13.4,1505.2,329.3,-0.7,1.8,2470.99,13.29,0.007,66.8
2022-08-15T09:52:03,42.805,6.029,0.023,-0.001,0.017,103.0,104.0,101.0,13.4,1505.2,323.0,-0.7,1.8,2470.996,13.29,0.023,92.5
2022-08-15T09:55:03,42.805,6.029,0.013,-0.021,-0.028,103.0,103.0,100.0,13.3,1505.2,327.0,-0.8,1.8,2470.973,13.29,0.024,148.2
2022-08-15T09:58:03,42.805,6.029,0.017,0.01,0.007,103.0,103.0,102.0,13.4,1505.2,320.1,-0.8,1.8,2470.953,13.29,0.019,59.5
2022-08-15T10:04:03,42.805,6.029,0.019,0.019,0.005,103.0,103.0,101.0,13.3,1505.2,323.2,-0.7,1.8,2471.037,13.28,0.026,45.0
2022-08-15T10:07:03,42.805,6.029,0.0,0.027,0.019,105.0,104.0,101.0,13.4,1505.2,333.4,-0.8,1.8,2471.012,13.28,0.026,0.0
2022-08-15T10:10:03,42.805,6.029,0.016,0.0,-0.003,104.0,103.0,101.0,13.4,1505.2,328.7,-0.8,1.8,2470.958,13.28,0.016,90.0
2022-08-15T10:13:03,42.805,6.029,0.007,-0.007,0.008,102.0,104.0,102.0,13.4,1505.2,328.1,-0.8,1.8,2470.974,13.29,0.009,135.0
2022-08-15T10:16:03,42.805,6.029,-0.014,-0.004,0.004,103.0,103.0,102.0,13.3,1505.2,318.3,-0.8,1.8,2471.007,13.29,0.014,254.1
2022-08-15T10:19:03,42.805,6.029,0.007,-0.003,0.017,102.0,104.0,101.0,13.3,1505.2,328.5,-0.8,1.8,2470.973,13.29,0.007,113.2
2022-08-15T10:22:03,42.805,6.029,0.0,0.007,0.001,103.0,103.0,101.0,13.4,1505.2,323.9,-0.8,1.8,2470.949,13.29,0.007,0.0
2022-08-15T10:25:03,42.805,6.029,0.02,0.002,0.013,103.0,103.0,101.0,13.4,1505.2,322.3,-0.8,1.8,2470.956,13.29,0.02,84.3
2022-08-15T10:28:03,42.805,6.029,0.0,-0.006,-0.038,103.0,104.0,101.0,13.3,1505.2,321.7,-0.7,1.8,2470.945,13.29,0.006,180.0
2022-08-15T10:31:03,42.805,6.029,0.004,0.001,-0.018,103.0,104.0,101.0,13.3,1505.2,329.7,-0.8,1.8,2470.929,13.29,0.004,76.0
2022-08-15T10:34:03,42.805,6.029,0.02,-0.009,0.01,103.0,103.0,101.0,13.4,1505.2,323.3,-0.8,1.8,2470.952,13.29,0.021,114.2
2022-08-15T10:37:03,42.805,6.029,0.032,0.004,-0.008,103.0,103.0,102.0,13.3,1505.2,323.8,-0.8,1.8,2470.95,13.29,0.032,82.9
2022-08-15T10:40:03,42.805,6.029,0.027,0.001,0.014,102.0,103.0,101.0,13.4,1505.2,322.4,-0.8,1.8,2470.974,13.29,0.027,87.9
2022-08-15T10:43:03,42.805,6.029,0.011,-0.004,0.001,102.0,105.0,102.0,13.4,1505.2,320.4,-0.7,1.8,2470.934,13.29,0.011,110.0
2022-08-15T10:46:03,42.805,6.029,-0.005,-0.009,-0.009,102.0,104.0,102.0,13.3,1505.2,325.2,-0.8,1.8,2470.95,13.29,0.01,209.1
2022-08-15T10:49:03,42.805,6.029,0.026,0.0,0.0,104.0,105.0,101.0,13.3,1505.2,323.6,-0.8,1.9,2470.942,13.29,0.026,90.0
2022-08-15T10:52:03,42.805,6.029,0.013,-0.003,-0.015,103.0,103.0,101.0,13.4,1505.2,323.7,-0.8,1.8,2470.93,13.29,0.013,103.0
2022-08-15T10:55:03,42.805,6.029,0.005,-0.002,-0.028,104.0,103.0,101.0,13.4,1505.2,322.8,-0.8,1.8,2470.964,13.29,0.005,111.8
2022-08-15T10:58:03,42.805,6.029,0.009,-0.008,-0.03,103.0,105.0,102.0,13.4,1505.2,329.8,-0.7,1.8,2470.964,13.29,0.012,131.6
2022-08-15T11:04:03,42.805,6.029,0.007,-0.009,-0.01,103.0,105.0,102.0,13.4,1505.2,319.7,-0.7,1.8,2470.993,13.28,0.011,142.1